ETS 6

导读

ETS 6是日本宇宙开发事业团研制的两吨级大型地球同步轨道工程试验卫星,于1994年8月28日发射升空。它主要用于验证大型通信广播卫星关键技术,开展固定移动通信及多波段激光星间通信试验,验证可重启双组元推进、轻型结构、高效能源等技术,为日本后续商用通信卫星发展奠定了技术基础,设计寿命达10年。

Basic Information
目录编号:
23230
目录名称:
ETS 6
国际标识:
1994-056A
轨道中心:
EARTH
卫星名称:
ETS 6
卫星全名:
--
卫星状态:
在轨 (已飞行11620 天)
发射日期:
1994-08-28 UTC
国别 :
日本 (JP)
星等 :
--
Orbit Information
数据来源 国际轨道数据 AOE轨道数据
星历时间 2026-06-20T07:08:23+0800
1天前
查看轨道信息
2026-06-20T21:00:00+0800
14小时前
查看轨道信息
半长轴 29998.698km 29998.674km
偏心率 0.5058118 0.5058186
轨道倾角 12.534° 12.533°
近地点辐角 182.883° 182.974°
升交点赤经 240.370° 240.322°
平近点角 211.336° 198.723°
近地点 8446.865km 8446.649km
远地点 38794.257km 38794.425km
周期 861.814分钟 861.813分钟
每日圈数 1.670895 1.670897
Detailed Information
使用方式:
暂无
2D Orbit Map
3D Orbit Map
Orbit Altitude Analysis Chart
Orbit Inclination Analysis Chart
Orbit Comprehensive Analysis Chart
View Comprehensive Chart